Ourzdine, Morocco

6:55 AM WEST on July 21, 2017 (GMT +0100)
Ourzdine

Weather History for 60230 - May, 2013

Change the Weather History Date:

Monday, May 20, 2013

  Actual Average Record
Temperature  
Mean Temperature 62 °F -  
Max Temperature 73 °F 87 °F - ()
Min Temperature 51 °F 61 °F - ()
Degree Days  
Heating Degree Days 3    
Growing Degree Days 12 (Base 50)    
Moisture  
Dew Point 45 °F    
Average Humidity 56    
Maximum Humidity 82    
Minimum Humidity 28    
Precipitation  
Precipitation 0.00 in 0.01 in - ()
Sea Level Pressure  
Sea Level Pressure 30.08 in    
Wind  
Wind Speed 5 mph ()    
Max Wind Speed 14 mph    
Max Gust Speed -    
Visibility 6.2 miles    
Events      
T = Trace of Precipitation, MM = Missing Value Source: Averaged Metar Reports

Daily Weather History Graph

Daily Weather History Graph

Search for Another Location

Airport or City:

Trip Planner

Search our weather history database for the weather conditions in past years. The results will help you decide how hot, cold, wet, or windy it might be!

Date:

Astronomy

May. 20, 2013 Rise Set
Actual Time 6:32 AM WEST 8:25 PM WEST
Civil Twilight 6:05 AM WEST 8:52 PM WEST
Nautical Twilight 5:32 AM WEST 9:24 PM WEST
Astronomical Twilight 4:58 AM WEST 9:59 PM WEST
Moon 3:35 PM WEST (5/20) 3:00 AM WEST (5/20)
Length of Visible Light 14h 46m
Length of Day
13h 52m
Waxing Gibbous, 73% of the Moon is Illuminated
May 20
Waxing Gibbous
May 25
Full
May 31
Last Quarter
Jun 8
New
Jun 16
First Quarter

Hourly Weather History & Observations

Time (WEST) Temp. Dew Point Humidity Pressure Visibility Wind Dir Wind Speed Gust Speed Precip Events Conditions
12:00 AM 59.0 °F 42.8 °F 55% 30.15 in - NE 10.4 mph - N/A   Clear
12:30 AM 59.0 °F 44.6 °F 59% 30.15 in - NNE 8.1 mph - N/A   Clear
1:00 AM 57 °F 46 °F 56% 30.16 in 6 mi NE 9.2 mph - -  
1:00 AM 57.2 °F 44.6 °F 63% 30.15 in - NE 9.2 mph - N/A   Clear
1:30 AM 57.2 °F 46.4 °F 67% 30.15 in - NE 8.1 mph - N/A   Clear
2:00 AM 55.4 °F 44.6 °F 67% 30.12 in - NE 5.8 mph - N/A   Clear
2:30 AM 55.4 °F 46.4 °F 72% 30.12 in - NE 6.9 mph - N/A   Clear
3:00 AM 55.4 °F 46.4 °F 72% 30.12 in - NE 5.8 mph - N/A   Clear
3:30 AM 55.4 °F 46.4 °F 72% 30.12 in 6.2 mi NE 8.1 mph - N/A   Mostly Cloudy
3:46 AM 55 °F 46 °F 63% 30.11 in 6 mi Calm Calm - -   Mostly Cloudy
4:00 AM 55.4 °F 46.4 °F 72% 30.09 in 6.2 mi Calm Calm - N/A   Mostly Cloudy
4:30 AM 55.4 °F 46.4 °F 72% 30.09 in 6.2 mi Calm Calm - N/A   Mostly Cloudy
5:00 AM 53.6 °F 46.4 °F 77% 30.09 in 6.2 mi Calm Calm - N/A   Scattered Clouds
5:30 AM 53.6 °F 46.4 °F 77% 30.09 in 6.2 mi Calm Calm - N/A   Scattered Clouds
6:00 AM 53.6 °F 46.4 °F 77% 30.06 in 6.2 mi Calm Calm - N/A   Scattered Clouds
6:30 AM 51.8 °F 46.4 °F 82% 30.09 in 6.2 mi Calm Calm - N/A   Scattered Clouds
6:48 AM 52 °F 46 °F 74% 30.10 in 6 mi Calm Calm - -   Scattered Clouds
7:00 AM 51.8 °F 46.4 °F 82% 30.09 in 6.2 mi Calm Calm - N/A   Scattered Clouds
7:30 AM 53.6 °F 46.4 °F 77% 30.09 in 6.2 mi Calm Calm - N/A   Scattered Clouds
8:00 AM 55.4 °F 46.4 °F 72% 30.09 in 6.2 mi Calm Calm - N/A   Scattered Clouds
8:30 AM 57.2 °F 48.2 °F 72% 30.09 in 6.2 mi Calm Calm - N/A   Scattered Clouds
9:00 AM 57.2 °F 46.4 °F 67% 30.09 in 6.2 mi Calm Calm - N/A   Scattered Clouds
9:30 AM 59.0 °F 48.2 °F 67% 30.09 in 6.2 mi Calm Calm - N/A   Scattered Clouds
10:00 AM 60 °F 47 °F 52% 30.09 in 6 mi NNW 1.2 mph - -   Partly Cloudy
10:00 AM 59.0 °F 46.4 °F 63% 30.09 in 6.2 mi Variable 2.3 mph - N/A   Scattered Clouds
10:30 AM 62.6 °F 46.4 °F 55% 30.09 in 6.2 mi Calm Calm - N/A   Scattered Clouds
11:00 AM 62.6 °F 46.4 °F 55% 30.09 in 6.2 mi WNW 3.5 mph - N/A   Scattered Clouds
11:30 AM 64.4 °F 46.4 °F 52% 30.09 in 6.2 mi Variable 2.3 mph - N/A   Scattered Clouds
12:00 PM 64.4 °F 46.4 °F 52% 30.09 in 6.2 mi NW 4.6 mph - N/A   Scattered Clouds
12:30 PM 66.2 °F 46.4 °F 49% 30.09 in 6.2 mi West 5.8 mph - N/A   Scattered Clouds
1:00 PM 67 °F 46 °F 35% 30.05 in 6 mi SW 2.3 mph - -   Mostly Cloudy
1:00 PM 66.2 °F 46.4 °F 49% 30.09 in 6.2 mi West 2.3 mph - N/A   Scattered Clouds
1:30 PM 68.0 °F 44.6 °F 43% 30.09 in 6.2 mi Calm Calm - N/A   Scattered Clouds
2:00 PM 68.0 °F 44.6 °F 43% 30.06 in 6.2 mi North 4.6 mph - N/A   Scattered Clouds
2:30 PM 68.0 °F 44.6 °F 43% 30.06 in 6.2 mi Variable 5.8 mph - N/A   Mostly Cloudy
3:00 PM 69.8 °F 44.6 °F 40% 30.06 in 6.2 mi WNW 4.6 mph - N/A   Mostly Cloudy
3:30 PM 68.0 °F 42.8 °F 40% 30.04 in 6.2 mi West 4.6 mph - N/A   Mostly Cloudy
4:00 PM 69 °F 43 °F 28% 29.99 in 6 mi West 4.6 mph - -   Mostly Cloudy
4:00 PM 69.8 °F 42.8 °F 38% 30.04 in 6.2 mi West 6.9 mph - N/A   Mostly Cloudy
4:30 PM 69.8 °F 42.8 °F 38% 30.04 in 6.2 mi WNW 5.8 mph - N/A   Mostly Cloudy
5:00 PM 71.6 °F 42.8 °F 35% 30.01 in 6.2 mi WSW 5.8 mph - N/A   Mostly Cloudy
5:30 PM 73.4 °F 42.8 °F 33% 30.01 in 6.2 mi Variable 8.1 mph - N/A   Mostly Cloudy
6:00 PM 73.4 °F 41.0 °F 31% 30.01 in 6.2 mi Variable 4.6 mph - N/A   Mostly Cloudy
6:30 PM 73.4 °F 39.2 °F 29% 30.01 in 6.2 mi West 11.5 mph - N/A   Mostly Cloudy
7:00 PM 71.6 °F 39.2 °F 31% 30.01 in 6.2 mi West 10.4 mph - N/A   Mostly Cloudy
7:30 PM 71.6 °F 39.2 °F 31% 30.01 in 6.2 mi West 10.4 mph - N/A   Mostly Cloudy
8:00 PM 68.0 °F 42.8 °F 40% 30.01 in 6.2 mi NNW 11.5 mph - N/A   Mostly Cloudy
8:30 PM 66.2 °F 42.8 °F 43% 30.04 in 6.2 mi NW 13.8 mph - N/A   Mostly Cloudy
9:00 PM 64.4 °F 44.6 °F 49% 30.06 in 6.2 mi NW 12.7 mph - N/A   Mostly Cloudy
9:30 PM 62.6 °F 44.6 °F 52% 30.06 in 6.2 mi NW 12.7 mph - N/A   Mostly Cloudy
10:00 PM 62.6 °F 46.4 °F 55% 30.09 in 6.2 mi NW 10.4 mph - N/A   Mostly Cloudy
10:30 PM 60.8 °F 48.2 °F 63% 30.09 in 6.2 mi WNW 12.7 mph - N/A   Mostly Cloudy
11:00 PM 60.8 °F 48.2 °F 63% 30.12 in 6.2 mi NW 11.5 mph - N/A   Mostly Cloudy
11:30 PM 59.0 °F 48.2 °F 67% 30.12 in 6.2 mi WNW 11.5 mph - N/A   Mostly Cloudy